Location: Brunembert
(50.7122°N, 1.8935°E)
Time: 10:32:51
(UTC+00:00)

FALCON 9 DEB - Pass Details

Date: 22 April 2021
Orbit: 369 x 384 km, 53.0° (Epoch: 16 May)

Event Time Altitude Azimuth Distance (km) Brightness Sun altitude
Rises 21:15:02 0° 244° (WSW) 2,212 6.9 -18.3°
Reaches altitude 10° 21:17:04 10° 243° (WSW) 1,366 5.8 -18.5°
Enters shadow 21:19:25 49° 229° (SW) 486 3.3 -18.7°
